Weather History for Fryeburg, ME

Change the Weather History Date:

Thursday, January 31, 2013

  Actual Average Record
Temperature  
Mean Temperature 44 °F -  
Max Temperature 57 °F 29 °F 57 °F (2013)
Min Temperature 28 °F 5 °F -18 °F (1999)
Degree Days  
Heating Degree Days 22    
Moisture  
Dew Point 39 °F    
Average Humidity 82    
Maximum Humidity 100    
Minimum Humidity 40    
Precipitation  
Precipitation 0.58 in - - ()
Sea Level Pressure  
Sea Level Pressure 29.15 in    
Wind  
Wind Speed 6 mph (SW)    
Max Wind Speed 20 mph    
Max Gust Speed 39 mph    
Visibility 6 miles    
Events Fog , Rain    
Averages and records for this station are not official NWS values.
T = Trace of Precipitation, MM = Missing Value Source: NWS Daily Summary

Daily Weather History Graph

Daily Weather History Graph

Search for Another Location

Airport:

Trip Planner

Search our weather history database for the weather conditions in past years. The results will help you decide how hot, cold, wet, or windy it might be!

Date:

Astronomy

Jan. 31, 2013 Rise Set
Actual Time 7:01 AM EST 4:53 PM EST
Civil Twilight 6:31 AM EST 5:23 PM EST
Nautical Twilight 5:56 AM EST 5:58 PM EST
Astronomical Twilight 5:22 AM EST 6:32 PM EST
Moon 10:05 PM EST (1/31) 8:48 AM EST (1/31)
Length of Visible Light 10h 52m
Length of Day
9h 51m
Waning Gibbous, 80% of the Moon is Illuminated
Jan 31
Waning Gibbous
Feb 3
Last Quarter
Feb 10
New
Feb 17
First Quarter
Feb 25
Full

Hourly Weather History & Observations

Time (EST) Temp. Windchill Dew Point Humidity Pressure Visibility Wind Dir Wind Speed Gust Speed Precip Events Conditions
12:01 AM 37.4 °F - 37.4 °F 100% 29.39 in 1.0 mi Calm Calm - 0.00 in Rain Light Rain
12:10 AM 37.4 °F 33.8 °F 37.4 °F 100% 29.38 in 0.8 mi ESE 4.6 mph - 0.00 in Rain Light Rain
12:41 AM 39.2 °F - 39.2 °F 100% 29.36 in 0.2 mi Calm Calm - 0.00 in Fog , Rain Light Rain
12:54 AM 39.9 °F - 39.9 °F 100% 29.36 in - Calm Calm - 0.01 in Rain Light Rain
1:01 AM 39.2 °F - 39.2 °F 100% 29.34 in 0.2 mi Calm Calm - 0.01 in Fog , Rain Rain
1:12 AM 42.8 °F - 41.0 °F 93% 29.33 in 0.5 mi Calm Calm - 0.02 in Fog , Rain Light Rain
1:25 AM 39.2 °F 37.0 °F 39.2 °F 100% 29.31 in 0.5 mi NW 3.5 mph - 0.03 in Fog , Rain Light Rain
1:36 AM 42.8 °F - 42.8 °F 100% 29.30 in 0.2 mi Calm Calm - 0.03 in Fog Fog
1:43 AM 42.8 °F - 41.0 °F 93% 29.29 in 0.2 mi Calm Calm - 0.03 in Fog , Rain Light Rain
1:54 AM 39.9 °F - 39.9 °F 100% 29.29 in 0.5 mi Calm Calm - 0.04 in Fog , Rain Light Rain
2:10 AM 48.2 °F - 48.2 °F 100% 29.25 in 1.0 mi South 5.8 mph - 0.00 in Rain Light Rain
2:19 AM 51.8 °F - 50.0 °F 94% 29.24 in 2.0 mi South 6.9 mph - 0.01 in Rain Light Rain
2:32 AM 51.8 °F - 51.8 °F 100% 29.22 in 3.0 mi South 6.9 mph - 0.02 in Rain Light Rain
2:43 AM 51.8 °F - 51.8 °F 100% 29.21 in 2.5 mi South 8.1 mph - 0.04 in Rain Light Rain
2:54 AM 52.0 °F - 52.0 °F 100% 29.21 in - South 9.2 mph - 0.07 in Rain Light Rain
3:17 AM 53.6 °F - 53.6 °F 100% 29.16 in 6.0 mi South 8.1 mph 16.1 mph 0.05 in Rain Light Rain
3:54 AM 54.0 °F - 54.0 °F 100% 29.12 in 10.0 mi South 12.7 mph 24.2 mph 0.09 in Rain Light Rain
4:54 AM 55.9 °F - 54.0 °F 93% 29.05 in 10.0 mi South 8.1 mph - 0.06 in Rain Light Rain
5:54 AM 57.0 °F - 55.0 °F 93% 28.96 in 8.0 mi SSE 11.5 mph 19.6 mph 0.05 in Rain Light Rain
7:20 AM 57.2 °F - 55.4 °F 94% 28.92 in 9.0 mi SSW 16.1 mph 25.3 mph 0.09 in Rain Light Rain
7:54 AM 55.9 °F - 53.1 °F 90% 28.90 in 10.0 mi SSW 8.1 mph 16.1 mph 0.12 in Rain Light Rain
8:54 AM 54.0 °F - 52.0 °F 93% 28.86 in 10.0 mi South 5.8 mph - 0.01 in   Mostly Cloudy
9:40 AM 55.4 °F - 51.8 °F 88% 28.80 in 10.0 mi South 9.2 mph 20.7 mph N/A   Overcast
9:51 AM 55.4 °F - 51.8 °F 88% 28.81 in 1.8 mi SW 16.1 mph 39.1 mph 0.08 in Rain Light Rain
9:54 AM 53.1 °F - 50.0 °F 89% 28.84 in 1.5 mi WSW 18.4 mph 39.1 mph 0.09 in Rain Rain
10:00 AM 50.0 °F - 46.4 °F 87% 28.85 in 3.0 mi West 16.1 mph 39.1 mph 0.00 in Rain Light Rain
10:04 AM 48.2 °F - 44.6 °F 87% 28.85 in 8.0 mi West 18.4 mph 32.2 mph 0.00 in Rain Light Rain
10:54 AM 44.1 °F 40.1 °F 39.9 °F 85% 28.92 in 10.0 mi Variable 6.9 mph 16.1 mph 0.04 in Rain Light Rain
11:54 AM 45.0 °F 37.1 °F 30.9 °F 58% 28.95 in 10.0 mi WSW 19.6 mph 34.5 mph 0.00 in   Scattered Clouds
12:54 PM 44.1 °F 36.5 °F 26.1 °F 49% 29.03 in 10.0 mi West 17.3 mph 36.8 mph N/A   Mostly Cloudy
1:54 PM 43.0 °F 35.4 °F 23.0 °F 45% 29.06 in 10.0 mi WSW 16.1 mph 25.3 mph N/A   Mostly Cloudy
2:54 PM 42.1 °F 35.2 °F 21.0 °F 43% 29.11 in 10.0 mi WSW 12.7 mph 26.5 mph N/A   Overcast
4:54 PM 35.1 °F 26.4 °F 14.0 °F 42% 29.24 in 10.0 mi WSW 12.7 mph 23.0 mph 0.00 in   Overcast
5:54 PM 34.0 °F 24.2 °F 14.0 °F 44% 29.27 in 10.0 mi SW 15.0 mph 24.2 mph 0.00 in   Overcast
7:54 PM 32.0 °F 22.5 °F 10.9 °F 42% 29.33 in 10.0 mi WSW 12.7 mph 20.7 mph N/A   Overcast
8:54 PM 30.9 °F 19.4 °F 10.9 °F 43% 29.36 in 10.0 mi WSW 17.3 mph 29.9 mph N/A   Overcast
9:54 PM 30.0 °F 20.5 °F 8.1 °F 40% 29.39 in 10.0 mi WSW 11.5 mph 29.9 mph N/A   Partly Cloudy
10:54 PM 28.9 °F 19.8 °F 7.0 °F 40% 29.42 in 10.0 mi West 10.4 mph 29.9 mph N/A   Overcast